ONEWEB-0026 (45139 NORAD) Tracking and Keplerian Element Data

This shows tracking and keplerian element data for the satellite.

Feedback or suggestion? Click here.




ElementValue
Catalog45139
NameONEWEB-0026
Epoch Orbit178
Epoch Day188.91667824
Epoch Year2020
RAAN115.7871
Inclination87.5479
Eccentricity0.0024214
Argument of Perigee102.0811
Mean Anonmoly331.5603
Mean Motion14.94001721
Decay Rate-0.00057349
L11 45139U 20008J 20188.91667824 -.00057349 00000-0 -54036-2 0 9994
L22 45139 87.5479 115.7871 0024214 102.0811 331.5603 14.94001721 1786

Live tracking and technical data element details for ONEWEB-0026 (NORAD 45139). ONEWEB-0026 can be tracked NOW for your location showing map with azimuth and elevation plus other details from your city location.

Track the satellite on the map from your city or location and see movement details for azimuth, elevation, latitude, longitude, range, height, and movement on the map or in text.







IsCatalogInMostPopularTable: catalog: 45139, numindb: 33
Update: records affected: 1



GetName: 45139 ONEWEB-0026

Hit Count: updated at: Wed, 08 Jul 2020 05:31:10 GMT